COSMOS 2457 (733)

Last updated on Sun Sep 20 2026 00:03:20 GMT+0000 (Coordinated Universal Time)

1 36112U 09070B 26262.24143014 .00000024 00000+0 00000+0 0 9990 2 36112 65.0575 67.6088 0005952 133.0189 45.4037 2.13101103130430
UTC large
Height (km)
Speed (km/s)
/
Latitude / Longitude
Inclination (degrees)
Orbital Period (minutes)
Azimuth
Elevation
Range (km)
Doppler Factor

Next 0 passes for location: London (51.5072 / 0.1276)

No passes found over London.
COSMOS 2457 (733)